owner,sensor,date,latitude,longitude,air_pressure(mBar),qcFlag 
TABS,ioos:station:wmo:42047:1,2011-02-01T00:00:00Z,27.8966,-93.5973,1011.67,11111222 
TABS,ioos:station:wmo:42047:1,2011-02-01T00:30:00Z,27.8966,-93.5973,1011.78,11111222 
TABS,ioos:station:wmo:42047:1,2011-02-01T01:00:00Z,27.8966,-93.5973,1011.8,11111222 
TABS,ioos:station:wmo:42047:1,2011-02-01T01:30:00Z,27.8966,-93.5973,1011.54,11111222 
TABS,ioos:station:wmo:42047:1,2011-02-01T02:00:00Z,27.8966,-93.5973,1011.39,11111222 
TABS,ioos:station:wmo:42047:1,2011-02-01T02:30:00Z,27.8966,-93.5973,1011.39,11111222 
TABS,ioos:station:wmo:42047:1,2011-02-01T03:00:00Z,27.8966,-93.5973,1011.39,11111222 
TABS,ioos:station:wmo:42047:1,2011-02-01T03:30:00Z,27.8966,-93.5973,1011.04,11111222 
TABS,ioos:station:wmo:42047:1,2011-02-01T04:00:00Z,27.8966,-93.5973,1010.91,11111222 
TABS,ioos:station:wmo:42047:1,2011-02-01T04:30:00Z,27.8966,-93.5973,1010.89,11111222 
TABS,ioos:station:wmo:42047:1,2011-02-01T05:00:00Z,27.8966,-93.5973,1010.64,11111222 
TABS,ioos:station:wmo:42047:1,2011-02-01T05:30:00Z,27.8966,-93.5973,1010.04,11111222 
TABS,ioos:station:wmo:42047:1,2011-02-01T06:00:00Z,27.8966,-93.5973,1009.37,11111222 
TABS,ioos:station:wmo:42047:1,2011-02-01T06:30:00Z,27.8966,-93.5973,1009.51,11111222 
TABS,ioos:station:wmo:42047:1,2011-02-01T07:00:00Z,27.8966,-93.5973,1009.47,11111222 
TABS,ioos:station:wmo:42047:1,2011-02-01T07:30:00Z,27.8966,-93.5973,1009.12,11111222 
TABS,ioos:station:wmo:42047:1,2011-02-01T08:00:00Z,27.8966,-93.5973,1008.53,11111222 
TABS,ioos:station:wmo:42047:1,2011-02-01T08:30:00Z,27.8966,-93.5973,1008.01,11111222 
TABS,ioos:station:wmo:42047:1,2011-02-01T09:00:00Z,27.8966,-93.5973,1007.4,11111222 
TABS,ioos:station:wmo:42047:1,2011-02-01T09:30:00Z,27.8966,-93.5973,1007.13,11111222 
TABS,ioos:station:wmo:42047:1,2011-02-01T10:00:00Z,27.8966,-93.5973,1006.67,11111222 
TABS,ioos:station:wmo:42047:1,2011-02-01T10:30:00Z,27.8966,-93.5973,1006.61,11111222 
TABS,ioos:station:wmo:42047:1,2011-02-01T11:00:00Z,27.8966,-93.5973,1006.77,11111222 
TABS,ioos:station:wmo:42047:1,2011-02-01T11:30:00Z,27.8966,-93.5973,1006.82,11111222 
TABS,ioos:station:wmo:42047:1,2011-02-01T12:00:00Z,27.8966,-93.5973,1006.93,11111222 
TABS,ioos:station:wmo:42047:1,2011-02-01T12:30:00Z,27.8966,-93.5973,1007.01,11111222 
TABS,ioos:station:wmo:42047:1,2011-02-01T13:00:00Z,27.8966,-93.5973,1007.31,11111222 
TABS,ioos:station:wmo:42047:1,2011-02-01T13:30:00Z,27.8966,-93.5973,1007.62,11111222 
TABS,ioos:station:wmo:42047:1,2011-02-01T14:00:00Z,27.8966,-93.5973,1008.61,11111222 
TABS,ioos:station:wmo:42047:1,2011-02-01T14:30:00Z,27.8966,-93.5973,1008.82,11111222 
TABS,ioos:station:wmo:42047:1,2011-02-01T15:00:00Z,27.8966,-93.5973,1008.99,11111222 
TABS,ioos:station:wmo:42047:1,2011-02-01T15:30:00Z,27.8966,-93.5973,1009.18,11111222 
TABS,ioos:station:wmo:42047:1,2011-02-01T16:00:00Z,27.8966,-93.5973,1009.04,11111222 
TABS,ioos:station:wmo:42047:1,2011-02-01T16:30:00Z,27.8966,-93.5973,1009.51,11111222 
TABS,ioos:station:wmo:42047:1,2011-02-01T17:00:00Z,27.8966,-93.5973,1009.54,11111222 
TABS,ioos:station:wmo:42047:1,2011-02-01T17:30:00Z,27.8966,-93.5973,1010.35,11111222 
TABS,ioos:station:wmo:42047:1,2011-02-01T18:00:00Z,27.8966,-93.5973,1010.51,11111222 
TABS,ioos:station:wmo:42047:1,2011-02-01T18:30:00Z,27.8966,-93.5973,1010.91,11111222 
TABS,ioos:station:wmo:42047:1,2011-02-01T19:00:00Z,27.8966,-93.5973,1011.0,11111222 
TABS,ioos:station:wmo:42047:1,2011-02-01T19:30:00Z,27.8966,-93.5973,1011.16,11111222 
TABS,ioos:station:wmo:42047:1,2011-02-01T20:00:00Z,27.8966,-93.5973,1011.23,11111222 
TABS,ioos:station:wmo:42047:1,2011-02-01T20:30:00Z,27.8966,-93.5973,1012.3,11111222 
TABS,ioos:station:wmo:42047:1,2011-02-01T21:00:00Z,27.8966,-93.5973,1012.82,11111222 
TABS,ioos:station:wmo:42047:1,2011-02-01T21:30:00Z,27.8966,-93.5973,1013.3,11111222 
TABS,ioos:station:wmo:42047:1,2011-02-01T22:00:00Z,27.8966,-93.5973,1013.37,11111222 
TABS,ioos:station:wmo:42047:1,2011-02-01T22:30:00Z,27.8966,-93.5973,1014.49,11111222 
TABS,ioos:station:wmo:42047:1,2011-02-01T23:00:00Z,27.8966,-93.5973,1014.65,11111222 
TABS,ioos:station:wmo:42047:1,2011-02-01T23:30:00Z,27.8966,-93.5973,1015.13,11111222 
TABS,ioos:station:wmo:42047:1,2011-02-02T00:00:00Z,27.8966,-93.5973,1015.87,11111222 
TABS,ioos:station:wmo:42047:1,2011-02-02T00:30:00Z,27.8966,-93.5973,1016.16,11111222 
TABS,ioos:station:wmo:42047:1,2011-02-02T01:00:00Z,27.8966,-93.5973,1017.08,11111222 
TABS,ioos:station:wmo:42047:1,2011-02-02T01:30:00Z,27.8966,-93.5973,1017.34,11111222 
TABS,ioos:station:wmo:42047:1,2011-02-02T02:00:00Z,27.8966,-93.5973,1018.37,11111222 
TABS,ioos:station:wmo:42047:1,2011-02-02T02:30:00Z,27.8966,-93.5973,1019.08,11111222 
TABS,ioos:station:wmo:42047:1,2011-02-02T03:00:00Z,27.8966,-93.5973,1019.55,11111222 
TABS,ioos:station:wmo:42047:1,2011-02-02T03:30:00Z,27.8966,-93.5973,1019.25,11111222 
TABS,ioos:station:wmo:42047:1,2011-02-02T04:00:00Z,27.8966,-93.5973,1020.36,11111222 
TABS,ioos:station:wmo:42047:1,2011-02-02T04:30:00Z,27.8966,-93.5973,1021.05,11111222 
TABS,ioos:station:wmo:42047:1,2011-02-02T05:00:00Z,27.8966,-93.5973,1021.38,11111222 
TABS,ioos:station:wmo:42047:1,2011-02-02T05:30:00Z,27.8966,-93.5973,1021.6,11111222 
TABS,ioos:station:wmo:42047:1,2011-02-02T06:00:00Z,27.8966,-93.5973,1021.75,11111222 
TABS,ioos:station:wmo:42047:1,2011-02-02T06:30:00Z,27.8966,-93.5973,1021.7,11111222 
TABS,ioos:station:wmo:42047:1,2011-02-02T07:00:00Z,27.8966,-93.5973,1021.53,11111222 
TABS,ioos:station:wmo:42047:1,2011-02-02T07:30:00Z,27.8966,-93.5973,1020.81,11111222 
TABS,ioos:station:wmo:42047:1,2011-02-02T08:00:00Z,27.8966,-93.5973,1021.58,11111222 
TABS,ioos:station:wmo:42047:1,2011-02-02T08:30:00Z,27.8966,-93.5973,1021.22,11111222 
TABS,ioos:station:wmo:42047:1,2011-02-02T09:00:00Z,27.8966,-93.5973,1022.23,11111222 
TABS,ioos:station:wmo:42047:1,2011-02-02T09:30:00Z,27.8966,-93.5973,1022.78,11111222 
TABS,ioos:station:wmo:42047:1,2011-02-02T10:00:00Z,27.8966,-93.5973,1023.63,11111222 
TABS,ioos:station:wmo:42047:1,2011-02-02T10:30:00Z,27.8966,-93.5973,1023.8,11111222 
TABS,ioos:station:wmo:42047:1,2011-02-02T11:00:00Z,27.8966,-93.5973,1023.84,11111222 
TABS,ioos:station:wmo:42047:1,2011-02-02T11:30:00Z,27.8966,-93.5973,1023.77,11111222 
TABS,ioos:station:wmo:42047:1,2011-02-02T12:00:00Z,27.8966,-93.5973,1025.35,11111222 
TABS,ioos:station:wmo:42047:1,2011-02-02T12:30:00Z,27.8966,-93.5973,1025.6,11111222 
TABS,ioos:station:wmo:42047:1,2011-02-02T13:00:00Z,27.8966,-93.5973,1025.71,11111222 
TABS,ioos:station:wmo:42047:1,2011-02-02T13:30:00Z,27.8966,-93.5973,1025.77,11111222 
TABS,ioos:station:wmo:42047:1,2011-02-02T14:00:00Z,27.8966,-93.5973,1026.24,11111222 
TABS,ioos:station:wmo:42047:1,2011-02-02T14:30:00Z,27.8966,-93.5973,1026.69,11111222 
TABS,ioos:station:wmo:42047:1,2011-02-02T15:00:00Z,27.8966,-93.5973,1026.74,11111222 
TABS,ioos:station:wmo:42047:1,2011-02-02T15:30:00Z,27.8966,-93.5973,1027.85,11111222 
TABS,ioos:station:wmo:42047:1,2011-02-02T16:00:00Z,27.8966,-93.5973,1027.56,11111222 
TABS,ioos:station:wmo:42047:1,2011-02-02T16:30:00Z,27.8966,-93.5973,1027.93,11111222 
TABS,ioos:station:wmo:42047:1,2011-02-02T17:00:00Z,27.8966,-93.5973,1028.16,11111222 
TABS,ioos:station:wmo:42047:1,2011-02-02T17:30:00Z,27.8966,-93.5973,1027.91,11111222 
TABS,ioos:station:wmo:42047:1,2011-02-02T18:00:00Z,27.8966,-93.5973,1027.23,11111222 
TABS,ioos:station:wmo:42047:1,2011-02-02T18:30:00Z,27.8966,-93.5973,1027.11,11111222 
TABS,ioos:station:wmo:42047:1,2011-02-02T19:00:00Z,27.8966,-93.5973,1026.41,11111222 
TABS,ioos:station:wmo:42047:1,2011-02-02T19:30:00Z,27.8966,-93.5973,1026.1,11111222 
TABS,ioos:station:wmo:42047:1,2011-02-02T20:00:00Z,27.8966,-93.5973,1025.75,11111222 
TABS,ioos:station:wmo:42047:1,2011-02-02T20:30:00Z,27.8966,-93.5973,1025.69,11111222 
TABS,ioos:station:wmo:42047:1,2011-02-02T21:00:00Z,27.8966,-93.5973,1025.84,11111222 
TABS,ioos:station:wmo:42047:1,2011-02-02T21:30:00Z,27.8966,-93.5973,1026.55,11111222 
TABS,ioos:station:wmo:42047:1,2011-02-02T22:00:00Z,27.8966,-93.5973,1026.22,11111222 
TABS,ioos:station:wmo:42047:1,2011-02-02T22:30:00Z,27.8966,-93.5973,1025.77,11111222 
TABS,ioos:station:wmo:42047:1,2011-02-02T23:00:00Z,27.8966,-93.5973,1026.93,11111222 
TABS,ioos:station:wmo:42047:1,2011-02-02T23:30:00Z,27.8966,-93.5973,1027.05,11111222 
TABS,ioos:station:wmo:42047:1,2011-02-03T00:00:00Z,27.8966,-93.5973,1027.23,11111222 
TABS,ioos:station:wmo:42047:1,2011-02-03T00:30:00Z,27.8966,-93.5973,1026.28,11111222 
TABS,ioos:station:wmo:42047:1,2011-02-03T01:00:00Z,27.8966,-93.5973,1026.85,11111222 
TABS,ioos:station:wmo:42047:1,2011-02-03T01:30:00Z,27.8966,-93.5973,1027.82,11111222 
TABS,ioos:station:wmo:42047:1,2011-02-03T02:00:00Z,27.8966,-93.5973,1028.29,11111222 
TABS,ioos:station:wmo:42047:1,2011-02-03T02:30:00Z,27.8966,-93.5973,1027.8,11111222 
TABS,ioos:station:wmo:42047:1,2011-02-03T03:00:00Z,27.8966,-93.5973,1027.51,11111222 
TABS,ioos:station:wmo:42047:1,2011-02-03T03:30:00Z,27.8966,-93.5973,1027.08,11111222 
TABS,ioos:station:wmo:42047:1,2011-02-03T04:00:00Z,27.8966,-93.5973,1028.23,11111222 
TABS,ioos:station:wmo:42047:1,2011-02-03T04:30:00Z,27.8966,-93.5973,1028.44,11111222 
TABS,ioos:station:wmo:42047:1,2011-02-03T05:00:00Z,27.8966,-93.5973,1027.76,11111222 
TABS,ioos:station:wmo:42047:1,2011-02-03T05:30:00Z,27.8966,-93.5973,1027.34,11111222 
TABS,ioos:station:wmo:42047:1,2011-02-03T06:00:00Z,27.8966,-93.5973,1027.56,11111222 
TABS,ioos:station:wmo:42047:1,2011-02-03T06:30:00Z,27.8966,-93.5973,1027.26,11111222 
TABS,ioos:station:wmo:42047:1,2011-02-03T07:00:00Z,27.8966,-93.5973,1027.06,11111222 
TABS,ioos:station:wmo:42047:1,2011-02-03T07:30:00Z,27.8966,-93.5973,1027.22,11111222 
TABS,ioos:station:wmo:42047:1,2011-02-03T08:00:00Z,27.8966,-93.5973,1026.8,11111222 
TABS,ioos:station:wmo:42047:1,2011-02-03T08:30:00Z,27.8966,-93.5973,1026.13,11111222 
TABS,ioos:station:wmo:42047:1,2011-02-03T09:00:00Z,27.8966,-93.5973,1026.59,11111222 
TABS,ioos:station:wmo:42047:1,2011-02-03T09:30:00Z,27.8966,-93.5973,1026.53,11111222 
TABS,ioos:station:wmo:42047:1,2011-02-03T10:00:00Z,27.8966,-93.5973,1026.25,11111222 
TABS,ioos:station:wmo:42047:1,2011-02-03T10:30:00Z,27.8966,-93.5973,1026.28,11111222 
TABS,ioos:station:wmo:42047:1,2011-02-03T11:00:00Z,27.8966,-93.5973,1026.51,11111222 
TABS,ioos:station:wmo:42047:1,2011-02-03T11:30:00Z,27.8966,-93.5973,1026.98,11111222 
TABS,ioos:station:wmo:42047:1,2011-02-03T12:00:00Z,27.8966,-93.5973,1027.28,11111222 
TABS,ioos:station:wmo:42047:1,2011-02-03T12:30:00Z,27.8966,-93.5973,1027.15,11111222 
TABS,ioos:station:wmo:42047:1,2011-02-03T13:00:00Z,27.8966,-93.5973,1027.12,11111222 
TABS,ioos:station:wmo:42047:1,2011-02-03T13:30:00Z,27.8966,-93.5973,1027.55,11111222 
TABS,ioos:station:wmo:42047:1,2011-02-03T14:00:00Z,27.8966,-93.5973,1027.52,11111222 
TABS,ioos:station:wmo:42047:1,2011-02-03T14:30:00Z,27.8966,-93.5973,1027.82,11111222 
TABS,ioos:station:wmo:42047:1,2011-02-03T15:00:00Z,27.8966,-93.5973,1027.96,11111222 
TABS,ioos:station:wmo:42047:1,2011-02-03T15:30:00Z,27.8966,-93.5973,1027.58,11111222 
TABS,ioos:station:wmo:42047:1,2011-02-03T16:00:00Z,27.8966,-93.5973,1027.78,11111222 
TABS,ioos:station:wmo:42047:1,2011-02-03T16:30:00Z,27.8966,-93.5973,1028.12,11111222 
TABS,ioos:station:wmo:42047:1,2011-02-03T17:00:00Z,27.8966,-93.5973,1027.85,11111222 
TABS,ioos:station:wmo:42047:1,2011-02-03T17:30:00Z,27.8966,-93.5973,1026.9,11111222 
TABS,ioos:station:wmo:42047:1,2011-02-03T18:00:00Z,27.8966,-93.5973,1027.17,11111222 
TABS,ioos:station:wmo:42047:1,2011-02-03T18:30:00Z,27.8966,-93.5973,1026.25,11111222 
TABS,ioos:station:wmo:42047:1,2011-02-03T19:00:00Z,27.8966,-93.5973,1025.7,11111222 
TABS,ioos:station:wmo:42047:1,2011-02-03T19:30:00Z,27.8966,-93.5973,1024.82,11111222 
TABS,ioos:station:wmo:42047:1,2011-02-03T20:00:00Z,27.8966,-93.5973,1024.48,11111222 
TABS,ioos:station:wmo:42047:1,2011-02-03T20:30:00Z,27.8966,-93.5973,1024.2,11111222 
TABS,ioos:station:wmo:42047:1,2011-02-03T21:00:00Z,27.8966,-93.5973,1023.87,11111222 
TABS,ioos:station:wmo:42047:1,2011-02-03T21:30:00Z,27.8966,-93.5973,1023.91,11111222 
TABS,ioos:station:wmo:42047:1,2011-02-03T22:00:00Z,27.8966,-93.5973,1023.16,11111222 
TABS,ioos:station:wmo:42047:1,2011-02-03T22:30:00Z,27.8966,-93.5973,1023.47,11111222 
TABS,ioos:station:wmo:42047:1,2011-02-03T23:00:00Z,27.8966,-93.5973,1023.01,11111222 
TABS,ioos:station:wmo:42047:1,2011-02-03T23:30:00Z,27.8966,-93.5973,1023.07,11111222 
TABS,ioos:station:wmo:42047:1,2011-02-04T00:00:00Z,27.8966,-93.5973,1023.16,11111222 
TABS,ioos:station:wmo:42047:1,2011-02-04T00:30:00Z,27.8966,-93.5973,1022.48,11111222 
TABS,ioos:station:wmo:42047:1,2011-02-04T01:00:00Z,27.8966,-93.5973,1023.64,11111222 
TABS,ioos:station:wmo:42047:1,2011-02-04T01:30:00Z,27.8966,-93.5973,1022.62,11111222 
TABS,ioos:station:wmo:42047:1,2011-02-04T02:00:00Z,27.8966,-93.5973,1022.28,11111222 
TABS,ioos:station:wmo:42047:1,2011-02-04T02:30:00Z,27.8966,-93.5973,1022.35,11111222 
TABS,ioos:station:wmo:42047:1,2011-02-04T03:00:00Z,27.8966,-93.5973,1022.99,11111222 
TABS,ioos:station:wmo:42047:1,2011-02-04T03:30:00Z,27.8966,-93.5973,1022.49,11111222 
TABS,ioos:station:wmo:42047:1,2011-02-04T04:00:00Z,27.8966,-93.5973,1022.14,11111222 
TABS,ioos:station:wmo:42047:1,2011-02-04T04:30:00Z,27.8966,-93.5973,1022.1,11111222 
TABS,ioos:station:wmo:42047:1,2011-02-04T05:00:00Z,27.8966,-93.5973,1021.69,11111222 
TABS,ioos:station:wmo:42047:1,2011-02-04T05:30:00Z,27.8966,-93.5973,1021.73,11111222 
TABS,ioos:station:wmo:42047:1,2011-02-04T06:00:00Z,27.8966,-93.5973,1021.47,11111222 
TABS,ioos:station:wmo:42047:1,2011-02-04T06:30:00Z,27.8966,-93.5973,1021.18,11111222 
TABS,ioos:station:wmo:42047:1,2011-02-04T07:00:00Z,27.8966,-93.5973,1021.33,11111222 
TABS,ioos:station:wmo:42047:1,2011-02-04T07:30:00Z,27.8966,-93.5973,1020.52,11111222 
TABS,ioos:station:wmo:42047:1,2011-02-04T08:00:00Z,27.8966,-93.5973,1020.15,11111222 
TABS,ioos:station:wmo:42047:1,2011-02-04T08:30:00Z,27.8966,-93.5973,1020.4,11111222 
TABS,ioos:station:wmo:42047:1,2011-02-04T09:00:00Z,27.8966,-93.5973,1020.17,11111222 
TABS,ioos:station:wmo:42047:1,2011-02-04T09:30:00Z,27.8966,-93.5973,1019.87,11111222 
TABS,ioos:station:wmo:42047:1,2011-02-04T10:00:00Z,27.8966,-93.5973,1019.96,11111222 
TABS,ioos:station:wmo:42047:1,2011-02-04T10:30:00Z,27.8966,-93.5973,1019.91,11111222 
TABS,ioos:station:wmo:42047:1,2011-02-04T11:00:00Z,27.8966,-93.5973,1019.79,11111222 
TABS,ioos:station:wmo:42047:1,2011-02-04T11:30:00Z,27.8966,-93.5973,1020.26,11111222 
TABS,ioos:station:wmo:42047:1,2011-02-04T12:00:00Z,27.8966,-93.5973,1020.5,11111222 
TABS,ioos:station:wmo:42047:1,2011-02-04T12:30:00Z,27.8966,-93.5973,1021.21,11111222 
TABS,ioos:station:wmo:42047:1,2011-02-04T13:00:00Z,27.8966,-93.5973,1020.97,11111222 
TABS,ioos:station:wmo:42047:1,2011-02-04T13:30:00Z,27.8966,-93.5973,1021.31,11111222 
TABS,ioos:station:wmo:42047:1,2011-02-04T14:00:00Z,27.8966,-93.5973,1021.4,11111222 
TABS,ioos:station:wmo:42047:1,2011-02-04T14:30:00Z,27.8966,-93.5973,1021.6,11111222 
TABS,ioos:station:wmo:42047:1,2011-02-04T15:00:00Z,27.8966,-93.5973,1021.95,11111222 
TABS,ioos:station:wmo:42047:1,2011-02-04T15:30:00Z,27.8966,-93.5973,1021.63,11111222 
TABS,ioos:station:wmo:42047:1,2011-02-04T16:00:00Z,27.8966,-93.5973,1022.17,11111222 
TABS,ioos:station:wmo:42047:1,2011-02-04T16:30:00Z,27.8966,-93.5973,1022.33,11111222 
TABS,ioos:station:wmo:42047:1,2011-02-04T17:00:00Z,27.8966,-93.5973,1022.22,11111222 
TABS,ioos:station:wmo:42047:1,2011-02-04T17:30:00Z,27.8966,-93.5973,1021.98,11111222 
TABS,ioos:station:wmo:42047:1,2011-02-04T18:00:00Z,27.8966,-93.5973,1021.47,11111222 
TABS,ioos:station:wmo:42047:1,2011-02-04T18:30:00Z,27.8966,-93.5973,1020.6,11111222 
TABS,ioos:station:wmo:42047:1,2011-02-04T19:00:00Z,27.8966,-93.5973,1020.04,11111222 
TABS,ioos:station:wmo:42047:1,2011-02-04T19:30:00Z,27.8966,-93.5973,1019.74,11111222 
TABS,ioos:station:wmo:42047:1,2011-02-04T20:00:00Z,27.8966,-93.5973,1019.83,11111222 
TABS,ioos:station:wmo:42047:1,2011-02-04T20:30:00Z,27.8966,-93.5973,1019.5,11111222 
TABS,ioos:station:wmo:42047:1,2011-02-04T21:00:00Z,27.8966,-93.5973,1019.22,11111222 
TABS,ioos:station:wmo:42047:1,2011-02-04T21:30:00Z,27.8966,-93.5973,1018.61,11111222 
TABS,ioos:station:wmo:42047:1,2011-02-04T22:00:00Z,27.8966,-93.5973,1018.97,11111222 
TABS,ioos:station:wmo:42047:1,2011-02-04T22:30:00Z,27.8966,-93.5973,1018.84,11111222 
TABS,ioos:station:wmo:42047:1,2011-02-04T23:00:00Z,27.8966,-93.5973,1019.08,11111222 
TABS,ioos:station:wmo:42047:1,2011-02-04T23:30:00Z,27.8966,-93.5973,1019.65,11111222 
TABS,ioos:station:wmo:42047:1,2011-02-05T00:00:00Z,27.8966,-93.5973,1019.65,11111222 
TABS,ioos:station:wmo:42047:1,2011-02-05T00:30:00Z,27.8966,-93.5973,1019.96,11111222 
TABS,ioos:station:wmo:42047:1,2011-02-05T01:00:00Z,27.8966,-93.5973,1020.27,11111222 
TABS,ioos:station:wmo:42047:1,2011-02-05T01:30:00Z,27.8966,-93.5973,1020.5,11111222 
TABS,ioos:station:wmo:42047:1,2011-02-05T02:00:00Z,27.8966,-93.5973,1020.91,11111222 
TABS,ioos:station:wmo:42047:1,2011-02-05T02:30:00Z,27.8966,-93.5973,1021.07,11111222 
TABS,ioos:station:wmo:42047:1,2011-02-05T03:00:00Z,27.8966,-93.5973,1021.25,11111222 
TABS,ioos:station:wmo:42047:1,2011-02-05T03:30:00Z,27.8966,-93.5973,1021.02,11111222 
TABS,ioos:station:wmo:42047:1,2011-02-05T04:00:00Z,27.8966,-93.5973,1021.33,11111222 
TABS,ioos:station:wmo:42047:1,2011-02-05T04:30:00Z,27.8966,-93.5973,1021.36,11111222 
TABS,ioos:station:wmo:42047:1,2011-02-05T05:00:00Z,27.8966,-93.5973,1021.71,11111222 
TABS,ioos:station:wmo:42047:1,2011-02-05T05:30:00Z,27.8966,-93.5973,1021.37,11111222 
TABS,ioos:station:wmo:42047:1,2011-02-05T06:00:00Z,27.8966,-93.5973,1021.27,11111222 
TABS,ioos:station:wmo:42047:1,2011-02-05T06:30:00Z,27.8966,-93.5973,1020.99,11111222 
TABS,ioos:station:wmo:42047:1,2011-02-05T07:00:00Z,27.8966,-93.5973,1021.03,11111222 
TABS,ioos:station:wmo:42047:1,2011-02-05T07:30:00Z,27.8966,-93.5973,1021.07,11111222 
TABS,ioos:station:wmo:42047:1,2011-02-05T08:00:00Z,27.8966,-93.5973,1020.92,11111222 
TABS,ioos:station:wmo:42047:1,2011-02-05T08:30:00Z,27.8966,-93.5973,1021.11,11111222 
TABS,ioos:station:wmo:42047:1,2011-02-05T09:00:00Z,27.8966,-93.5973,1020.49,11111222 
TABS,ioos:station:wmo:42047:1,2011-02-05T09:30:00Z,27.8966,-93.5973,1020.12,11111222 
TABS,ioos:station:wmo:42047:1,2011-02-05T10:00:00Z,27.8966,-93.5973,1020.11,11111222 
TABS,ioos:station:wmo:42047:1,2011-02-05T10:30:00Z,27.8966,-93.5973,1020.39,11111222 
TABS,ioos:station:wmo:42047:1,2011-02-05T11:00:00Z,27.8966,-93.5973,1020.15,11111222 
TABS,ioos:station:wmo:42047:1,2011-02-05T11:30:00Z,27.8966,-93.5973,1020.08,11111222 
TABS,ioos:station:wmo:42047:1,2011-02-05T12:00:00Z,27.8966,-93.5973,1019.93,11111222 
TABS,ioos:station:wmo:42047:1,2011-02-05T12:30:00Z,27.8966,-93.5973,1019.91,11111222 
TABS,ioos:station:wmo:42047:1,2011-02-05T13:00:00Z,27.8966,-93.5973,1019.85,11111222 
TABS,ioos:station:wmo:42047:1,2011-02-05T13:30:00Z,27.8966,-93.5973,1019.99,11111222 
TABS,ioos:station:wmo:42047:1,2011-02-05T14:00:00Z,27.8966,-93.5973,1020.27,11111222 
TABS,ioos:station:wmo:42047:1,2011-02-05T14:30:00Z,27.8966,-93.5973,1020.47,11111222 
TABS,ioos:station:wmo:42047:1,2011-02-05T15:00:00Z,27.8966,-93.5973,1020.3,11111222 
TABS,ioos:station:wmo:42047:1,2011-02-05T15:30:00Z,27.8966,-93.5973,1020.05,11111222 
TABS,ioos:station:wmo:42047:1,2011-02-05T16:00:00Z,27.8966,-93.5973,1019.92,11111222 
TABS,ioos:station:wmo:42047:1,2011-02-05T16:30:00Z,27.8966,-93.5973,1019.95,11111222 
TABS,ioos:station:wmo:42047:1,2011-02-05T17:00:00Z,27.8966,-93.5973,1019.58,11111222 
TABS,ioos:station:wmo:42047:1,2011-02-05T17:30:00Z,27.8966,-93.5973,1019.02,11111222 
TABS,ioos:station:wmo:42047:1,2011-02-05T18:00:00Z,27.8966,-93.5973,1018.57,11111222 
TABS,ioos:station:wmo:42047:1,2011-02-05T18:30:00Z,27.8966,-93.5973,1017.88,11111222 
TABS,ioos:station:wmo:42047:1,2011-02-05T19:00:00Z,27.8966,-93.5973,1017.38,11111222 
TABS,ioos:station:wmo:42047:1,2011-02-05T19:30:00Z,27.8966,-93.5973,1016.78,11111222 
TABS,ioos:station:wmo:42047:1,2011-02-05T20:00:00Z,27.8966,-93.5973,1016.16,11111222 
TABS,ioos:station:wmo:42047:1,2011-02-05T20:30:00Z,27.8966,-93.5973,1015.42,11111222 
TABS,ioos:station:wmo:42047:1,2011-02-05T21:00:00Z,27.8966,-93.5973,1015.43,11111222 
TABS,ioos:station:wmo:42047:1,2011-02-05T21:30:00Z,27.8966,-93.5973,1015.27,11111222 
TABS,ioos:station:wmo:42047:1,2011-02-05T22:00:00Z,27.8966,-93.5973,1015.14,11111222 
TABS,ioos:station:wmo:42047:1,2011-02-05T22:30:00Z,27.8966,-93.5973,1014.84,11111222 
TABS,ioos:station:wmo:42047:1,2011-02-05T23:00:00Z,27.8966,-93.5973,1015.04,11111222 
TABS,ioos:station:wmo:42047:1,2011-02-05T23:30:00Z,27.8966,-93.5973,1015.27,11111222 
TABS,ioos:station:wmo:42047:1,2011-02-06T00:00:00Z,27.8966,-93.5973,1015.36,11111222 
TABS,ioos:station:wmo:42047:1,2011-02-06T00:30:00Z,27.8966,-93.5973,1015.45,11111222 
TABS,ioos:station:wmo:42047:1,2011-02-06T01:00:00Z,27.8966,-93.5973,1015.45,11111222 
TABS,ioos:station:wmo:42047:1,2011-02-06T01:30:00Z,27.8966,-93.5973,1015.32,11111222 
TABS,ioos:station:wmo:42047:1,2011-02-06T02:00:00Z,27.8966,-93.5973,1015.35,11111222 
TABS,ioos:station:wmo:42047:1,2011-02-06T02:30:00Z,27.8966,-93.5973,1015.45,11111222 
TABS,ioos:station:wmo:42047:1,2011-02-06T03:00:00Z,27.8966,-93.5973,1015.43,11111222 
TABS,ioos:station:wmo:42047:1,2011-02-06T03:30:00Z,27.8966,-93.5973,1015.41,11111222 
TABS,ioos:station:wmo:42047:1,2011-02-06T04:00:00Z,27.8966,-93.5973,1015.2,11111222 
TABS,ioos:station:wmo:42047:1,2011-02-06T04:30:00Z,27.8966,-93.5973,1015.25,11111222 
TABS,ioos:station:wmo:42047:1,2011-02-06T05:00:00Z,27.8966,-93.5973,1015.62,11111222 
TABS,ioos:station:wmo:42047:1,2011-02-06T05:30:00Z,27.8966,-93.5973,1015.52,11111222 
TABS,ioos:station:wmo:42047:1,2011-02-06T06:00:00Z,27.8966,-93.5973,1015.31,11111222 
TABS,ioos:station:wmo:42047:1,2011-02-06T06:30:00Z,27.8966,-93.5973,1015.23,11111222 
TABS,ioos:station:wmo:42047:1,2011-02-06T07:00:00Z,27.8966,-93.5973,1014.87,11111222 
TABS,ioos:station:wmo:42047:1,2011-02-06T07:30:00Z,27.8966,-93.5973,1014.66,11111222 
TABS,ioos:station:wmo:42047:1,2011-02-06T08:00:00Z,27.8966,-93.5973,1014.53,11111222 
TABS,ioos:station:wmo:42047:1,2011-02-06T08:30:00Z,27.8966,-93.5973,1014.17,11111222 
TABS,ioos:station:wmo:42047:1,2011-02-06T09:00:00Z,27.8966,-93.5973,1013.97,11111222 
TABS,ioos:station:wmo:42047:1,2011-02-06T09:30:00Z,27.8966,-93.5973,1013.9,11111222 
TABS,ioos:station:wmo:42047:1,2011-02-06T10:00:00Z,27.8966,-93.5973,1013.91,11111222 
TABS,ioos:station:wmo:42047:1,2011-02-06T10:30:00Z,27.8966,-93.5973,1013.88,11111222 
TABS,ioos:station:wmo:42047:1,2011-02-06T11:00:00Z,27.8966,-93.5973,1013.22,11111222 
TABS,ioos:station:wmo:42047:1,2011-02-06T11:30:00Z,27.8966,-93.5973,1013.42,11111222 
TABS,ioos:station:wmo:42047:1,2011-02-06T12:00:00Z,27.8966,-93.5973,1014.06,11111222 
TABS,ioos:station:wmo:42047:1,2011-02-06T12:30:00Z,27.8966,-93.5973,1014.31,11111222 
TABS,ioos:station:wmo:42047:1,2011-02-06T13:00:00Z,27.8966,-93.5973,1014.39,11111222 
TABS,ioos:station:wmo:42047:1,2011-02-06T13:30:00Z,27.8966,-93.5973,1014.69,11111222 
TABS,ioos:station:wmo:42047:1,2011-02-06T14:00:00Z,27.8966,-93.5973,1014.86,11111222 
TABS,ioos:station:wmo:42047:1,2011-02-06T14:30:00Z,27.8966,-93.5973,1015.01,11111222 
TABS,ioos:station:wmo:42047:1,2011-02-06T15:00:00Z,27.8966,-93.5973,1015.46,11111222 
TABS,ioos:station:wmo:42047:1,2011-02-06T15:30:00Z,27.8966,-93.5973,1015.6,11111222 
TABS,ioos:station:wmo:42047:1,2011-02-06T16:00:00Z,27.8966,-93.5973,1015.41,11111222 
TABS,ioos:station:wmo:42047:1,2011-02-06T16:30:00Z,27.8966,-93.5973,1015.13,11111222 
TABS,ioos:station:wmo:42047:1,2011-02-06T17:00:00Z,27.8966,-93.5973,1015.23,11111222 
TABS,ioos:station:wmo:42047:1,2011-02-06T17:30:00Z,27.8966,-93.5973,1014.94,11111222 
TABS,ioos:station:wmo:42047:1,2011-02-06T18:00:00Z,27.8966,-93.5973,1014.62,11111222 
TABS,ioos:station:wmo:42047:1,2011-02-06T18:30:00Z,27.8966,-93.5973,1014.26,11111222 